ROMMA est une association bénévole à but non lucratif. Votre soutien est indispensable : ADHERER à ROMMA ou FAIRE un DON

Lans-en-Vercors - (38, Isère)

Vercors (990 m)   Longitude: 5° 33' 59'' E   Latitude: 45° 6' 3'' N Station partenaire n°80
 

Détail journalier du     <<     >>

Température Humidité Vent Dir Rafale Dir. rafale Ensol.
Heure (°C) (%) (km/h) (km/h) (min)
01:00 0.5886N29NNO0
02:00 0.2888N24NNO0
03:00 0.1867N23NNE0
04:00 -0.1876NNE26NNE0
05:00 -0.1878N26NNO0
06:00 -0.58716N35NNE0
07:00 -0.99116N34NNE0
08:00 -1.29016N35N0
09:00 -0.98715N34NNE0
10:00 1.18510N32N0
11:00 2.67711N24NNO60
12:00 3.47111NNE29NNE60
13:00 2.87013NNE29NE0
14:00 3.76812NNE31NNE0
15:00 2.96812NNE31NNE0
16:00 3.97413NNO26N30
17:00 3.06715NNO35NNO60
18:00 1.6777N31N30
19:00 0.9804N18NNO0
20:00 0.3805N19NNO0
21:00 -1.4861NO8NNO0
22:00 -2.29008N0
23:00 -3.39105NNO0
minuit -2.89203NNO0

Graphique du 18-03-2019

 

Serveur OMMA